Wetbulb
77.79 75.73 74.10 69.97 60.53 55.27 52.85 56.76 59.22 58.99 59.39 64.34 65.54 63.78 62.92 65.07 60.82 56.76 70.09 72.62 74.32 74.47 75.65 76.59 78.25 78.51 78.22 78.65 77.91 78.15 78.92 78.99 79.09 79.12 79.16 79.24 78.76 78.66 78.89 78.75 78.16 78.28 77.73 77.48 77.59 77.45 77.07 76.66 76.52
74.55 74.10 71.90 66.62 55.76 47.29 49.89 58.98 58.55 60.89 62.84 65.27 65.92 66.01 64.08 62.78 67.65 68.11 69.47 73.41 74.97 74.73 75.52 76.35 78.05 78.65 78.14 78.16 78.59 78.93 78.67 78.41 79.00 79.13 79.17 78.98 78.89 78.92 78.18 77.72 77.85 77.72 77.54 77.38 77.10 76.86 76.64 76.06 75.87
73.39 72.20 66.33 61.71 52.43 49.81 53.34 59.56 61.35 63.05 65.17 64.98 64.58 67.10 65.45 64.31 68.56 69.34 71.93 73.82 74.79 74.70 75.35 75.99 78.43 78.72 78.29 78.58 79.00 78.85 78.74 78.47 78.83 78.86 78.99 79.12 78.19 77.72 77.89 77.65 77.31 77.36 77.34 76.88 76.78 76.56 76.23 75.62 75.65
70.21 66.97 64.04 54.92 49.38 57.15 59.12 61.88 63.95 63.21 64.66 67.52 67.00 63.56 67.77 70.90 69.90 71.33 72.98 73.74 74.31 74.85 75.66 77.90 78.71 78.21 78.45 78.98 78.88 79.05 78.68 78.68 78.58 78.58 78.21 77.99 77.76 77.38 77.63 77.46 77.51 77.31 77.12 76.69 76.39 76.31 75.84 75.43 75.40
68.99 62.45 54.69 49.42 51.79 58.74 62.40 64.10 64.13 63.73 65.13 65.70 66.52 63.68 65.36 70.46 73.30 73.16 73.13 73.83 73.36 74.74 76.17 76.74 78.36 78.37 78.59 78.86 79.47 79.10 78.72 78.27 78.35 78.25 77.96 78.16 77.98 77.52 77.63 77.46 77.11 76.84 76.50 76.40 75.90 75.43 75.04 74.96 75.01
60.43 60.23 53.63 48.67 51.83 57.91 62.07 64.15 65.21 65.59 65.86 65.74 65.04 64.83 65.26 71.73 72.46 73.27 73.87 73.25 74.56 74.62 75.83 76.37 78.10 78.23 78.70 78.88 78.41 79.05 78.43 77.87 78.08 78.33 78.29 78.37 77.82 77.56 77.35 76.84 76.76 76.51 76.04 75.67 75.29 75.21 75.12 75.31 75.14
60.24 56.68 53.19 53.58 54.50 57.44 61.24 65.04 64.53 65.09 65.30 65.34 67.92 62.98 66.18 69.24 72.28 73.62 73.66 73.87 74.84 75.90 76.04 76.38 76.54 77.31 78.41 79.20 78.48 78.12 78.21 77.79 77.88 78.29 78.05 77.96 77.36 76.88 76.64 76.51 76.42 76.20 75.81 75.61 75.84 76.37 76.73 76.53 76.55
62.84 59.40 54.08 52.81 52.95 54.14 62.01 62.15 65.54 65.91 65.41 70.00 69.32 63.44 63.48 68.74 72.47 73.37 73.19 73.10 73.86 74.90 75.58 75.68 75.64 76.21 76.48 77.20 78.69 77.74 77.97 77.76 77.65 77.77 77.65 77.57 77.07 76.75 76.31 74.92 76.48 76.78 76.71 76.54 76.45 76.86 76.83 77.03 76.79
65.12 54.52 53.00 55.41 55.18 55.60 60.98 61.82 65.82 68.22 67.21 67.92 68.64 67.90 69.75 71.76 72.76 71.93 71.49 71.81 72.41 73.93 74.27 74.70 75.05 75.45 75.69 76.19 76.93 78.57 78.00 78.12 77.79 77.41 77.39 77.88 74.87 73.44 70.48 72.83 74.74 75.72 76.66 76.09 77.48 77.03 76.46 77.04 76.54
61.24 55.92 56.51 60.15 59.96 58.41 62.34 63.09 63.46 64.24 64.91 64.85 66.20 69.47 71.68 72.14 71.42 70.23 70.12 69.93 70.68 71.62 72.35 73.42 74.43 74.92 75.29 77.07 75.66 75.99 75.55 75.67 75.13 74.83 74.43 74.38 73.49 72.33 72.02 73.07 75.27 74.93 75.29 76.92 77.48 76.68 77.20 76.28 74.11
61.35 58.32 60.37 60.74 62.11 63.25 62.12 63.14 65.17 63.35 61.60 64.69 64.68 68.12 70.36 70.78 70.31 70.38 70.60 70.64 71.08 72.18 72.72 72.55 73.23 73.81 73.80 74.31 74.27 74.48 74.58 74.42 74.01 73.57 73.45 73.29 73.38 72.30 73.41 72.00 71.62 72.11 74.70 73.73 74.56 74.07 73.94 73.14 72.95
58.45 61.16 62.17 61.80 64.86 61.80 61.42 62.68 59.59 63.71 63.95 67.10 68.87 70.01 70.24 69.56 69.69 70.16 69.97 70.45 70.67 71.50 72.15 72.80 73.31 73.83 73.60 74.59 74.44 74.17 73.74 73.63 73.29 73.23 73.40 72.99 72.56 71.10 70.71 71.43 71.34 71.81 72.25 72.13 71.47 71.15 71.84 72.14 72.58
58.88 60.56 63.10 64.16 62.74 61.70 62.13 60.05 60.72 63.20 66.49 67.57 68.72 69.17 68.78 68.94 69.67 71.05 71.11 71.30 71.68 70.82 71.56 72.70 73.88 73.60 72.98 73.63 73.62 73.51 74.09 73.75 73.35 73.13 73.08 73.72 73.42 71.55 71.41 71.66 71.08 70.80 71.68 70.68 71.48 71.70 71.23 70.94 71.15
61.81 61.42 61.80 63.55 62.07 61.94 59.67 59.85 61.50 64.49 67.03 66.46 66.53 66.48 67.34 68.70 68.48 67.47 69.37 69.72 70.16 71.55 72.70 73.92 73.87 73.45 72.69 72.45 73.29 72.81 72.98 74.27 73.13 73.57 73.45 73.60 73.69 73.20 71.05 71.30 70.36 71.62 71.58 72.22 71.99 71.37 70.86 70.78 71.47
62.02 58.42 61.46 62.24 62.65 62.43 63.55 60.33 60.47 64.31 66.35 65.19 65.61 65.87 66.27 66.57 67.57 67.61 69.20 68.28 69.78 71.85 73.21 73.32 73.28 73.63 72.93 73.39 73.33 73.62 73.62 73.01 71.28 73.05 73.11 74.00 73.53 72.31 72.67 70.65 70.24 70.39 71.30 71.57 71.79 71.22 71.06 70.41 70.87
56.03 56.51 51.92 58.19 62.74 63.22 61.68 55.98 61.89 64.85 64.49 63.62 65.23 65.92 66.22 66.03 66.93 68.25 69.20 68.45 69.19 71.65 71.88 73.09 74.37 73.66 72.45 72.84 73.58 73.90 73.84 72.81 72.03 72.03 72.31 73.38 72.83 72.38 71.95 70.08 70.38 71.04 71.12 71.23 69.39 69.78 69.66 69.27 69.20
50.35 48.02 52.81 55.39 60.25 61.40 59.35 57.17 62.16 64.11 63.83 63.08 64.27 65.13 65.89 65.79 66.33 67.95 69.20 69.20 68.95 70.89 72.23 73.19 73.01 72.86 72.98 73.57 74.02 73.78 73.61 73.29 72.66 72.15 72.74 73.48 74.51 74.39 72.02 70.96 71.45 71.17 69.75 69.19 69.46 69.28 68.83 68.04 68.26
46.86 49.47 54.09 53.59 57.22 58.80 58.92 58.20 62.06 63.43 63.04 63.07 63.89 64.68 65.19 65.51 66.14 67.67 68.80 69.73 69.25 70.05 71.73 72.70 72.49 73.16 73.69 73.75 73.35 73.59 73.03 73.09 72.41 72.89 72.53 73.20 72.28 72.69 72.17 72.08 70.35 70.54 69.77 69.16 68.87 68.06 67.95 68.24 67.66
51.30 53.41 52.89 56.15 58.10 58.89 58.57 58.80 61.37 63.17 63.33 62.99 63.46 64.19 64.91 65.63 67.09 68.27 69.25 69.76 70.41 70.67 69.74 70.73 71.20 72.72 72.88 72.00 71.03 70.42 69.95 70.72 71.62 71.83 72.84 72.39 72.60 72.79 71.28 70.27 70.57 70.12 68.77 67.74 67.04 67.34 66.78 66.40 66.98
49.98 52.42 53.35 55.50 57.92 55.84 57.87 58.34 61.39 62.88 63.31 64.18 64.13 64.84 65.45 66.02 66.63 68.08 68.90 70.16 70.46 69.97 69.93 70.61 71.54 72.70 72.55 72.07 71.18 71.75 71.28 71.09 71.56 72.02 72.66 72.73 72.61 72.35 72.45 70.42 68.60 68.05 67.03 65.62 65.74 65.27 64.20 64.93 66.26
49.33 52.55 53.91 52.96 56.71 56.99 58.20 54.32 56.55 61.36 63.58 62.69 65.19 66.24 66.63 66.45 66.43 67.43 68.42 69.10 70.30 69.65 71.00 70.99 72.40 72.22 72.18 72.52 72.49 72.02 71.57 70.69 68.45 68.10 68.91 69.47 69.95 70.27 68.28 67.80 67.01 67.01 65.87 65.35 65.35 65.29 64.27 62.69 64.14
44.67 53.09 56.46 55.91 54.31 48.76 55.66 47.17 52.95 57.82 58.78 59.60 61.99 64.02 64.99 66.87 67.75 68.17 68.54 68.13 70.01 70.81 72.11 71.83 72.31 72.26 72.77 72.03 72.14 70.49 67.74 65.94 64.89 65.30 64.71 65.70 67.42 66.91 66.79 66.81 67.14 66.52 66.04 65.09 65.06 66.18 64.62 63.80 61.55
49.40 52.48 51.15 56.03 53.63 49.46 51.78 47.64 54.18 54.72 54.80 57.18 59.39 62.97 63.99 67.37 67.93 68.33 68.73 69.03 70.75 72.04 72.57 72.83 71.93 71.94 72.62 72.22 70.93 68.75 63.13 62.37 63.96 64.40 63.01 61.43 63.26 66.18 67.76 67.71 66.35 65.34 64.64 64.27 64.30 63.50 63.53 63.70 62.75
53.93 49.78 48.04 46.27 44.10 40.94 49.52 49.23 44.80 52.44 55.36 57.02 58.85 63.34 64.04 66.45 68.10 69.08 69.92 69.67 70.91 72.17 72.92 73.20 71.62 71.52 71.67 67.30 66.14 62.38 61.61 61.45 62.29 61.74 60.18 62.59 61.00 65.97 66.66 66.01 64.57 65.03 64.67 64.21 63.67 64.01 63.24 62.78 62.58
49.24 43.16 38.47 38.82 37.48 37.94 42.34 49.51 51.76 55.87 59.13 58.83 58.61 62.88 64.15 65.91 66.57 67.91 67.67 68.34 70.50 71.18 72.19 72.97 71.73 70.67 68.53 65.37 63.60 61.59 61.64 61.18 60.82 60.48 61.87 61.65 63.44 63.67 64.01 64.14 64.69 62.91 63.37 63.74 63.81 63.21 62.18 62.59 62.15
45.72 44.31 39.06 35.84 37.09 40.39 45.17 41.99 47.45 57.39 60.80 60.57 61.47 64.19 64.67 65.02 65.69 66.38 66.42 67.73 70.40 71.03 71.47 72.74 71.46 70.25 67.65 65.05 64.00 62.68 62.61 61.70 61.66 62.65 63.58 60.69 61.14 63.41 64.03 64.07 64.16 64.29 64.41 64.63 64.25 63.08 62.41 62.90 62.47
46.34 43.41 47.33 42.36 42.01 40.55 43.10 47.79 53.48 56.74 58.48 59.60 59.72 63.01 62.67 64.49 65.33 65.88 67.09 67.70 69.53 70.70 71.28 72.10 70.93 69.32 67.42 65.41 63.63 62.25 62.46 63.57 64.36 64.38 63.18 62.08 63.79 64.19 64.25 64.55 63.92 64.06 64.89 64.34 63.37 62.88 62.52 62.00 61.73
48.58 48.90 43.06 40.48 36.91 35.21 40.90 44.15 45.95 52.66 55.82 58.08 58.71 59.74 60.43 64.18 65.26 65.88 66.76 67.55 69.37 71.02 71.82 72.50 71.03 69.12 66.93 65.49 63.83 63.59 63.56 63.67 64.47 63.72 63.20 63.63 62.74 63.67 63.41 64.16 63.71 63.85 63.79 63.33 63.04 62.43 62.23 61.81 61.29
47.02 44.71 43.48 44.00 41.00 38.13 36.76 42.81 50.96 52.37 56.92 57.65 59.65 60.69 59.47 60.75 64.26 65.73 66.45 67.40 69.39 70.63 71.95 71.79 70.58 68.58 66.41 66.31 65.27 64.70 64.88 64.79 64.27 63.72 63.31 63.37 63.15 63.86 64.39 64.43 64.12 63.37 63.15 63.59 63.14 62.60 62.41 61.77 61.15
48.69 47.09 45.16 41.45 39.66 40.85 41.17 43.46 53.67 54.99 56.84 58.93 59.40 60.78 59.68 60.51 62.52 65.07 66.00 66.63 68.47 69.58 71.49 71.05 70.12 68.46 67.51 67.04 66.03 65.48 65.89 65.62 64.27 63.81 63.52 63.41 63.33 64.05 63.90 63.83 63.59 63.61 63.68 62.80 62.20 61.93 62.26 61.38 61.10
MSLP
1008.00 1008.02 1008.34 1008.39 1009.20 1008.90 1009.69 1010.31 1010.32 1010.46 1010.58 1010.14 1010.63 1010.93 1011.88 1012.07 1012.46 1014.83 1015.23 1015.33 1015.46 1015.73 1015.71 1015.69 1015.98 1016.01 1016.38 1016.36 1016.75 1017.03 1016.95 1017.14 1017.29 1017.17 1017.45 1017.77 1018.05 1017.93 1018.12 1018.33 1018.43 1018.46 1018.59 1018.50 1018.60 1018.59 1018.49 1018.53 1018.45
1007.77 1008.34 1008.22 1008.02 1008.53 1009.07 1009.67 1009.91 1010.44 1010.15 1010.07 1010.41 1010.83 1011.16 1011.68 1012.96 1013.05 1014.47 1015.15 1015.37 1015.32 1015.63 1015.82 1015.97 1016.12 1016.20 1016.39 1016.79 1017.00 1017.13 1017.21 1017.39 1017.45 1017.47 1017.83 1017.87 1017.98 1018.06 1018.32 1018.49 1018.51 1018.62 1018.66 1018.63 1018.69 1018.71 1018.69 1018.66 1018.64
1007.30 1007.51 1007.96 1007.74 1008.26 1008.81 1009.14 1009.24 1009.35 1009.93 1010.31 1010.43 1010.77 1011.43 1012.31 1013.48 1013.75 1014.25 1014.79 1015.20 1015.54 1015.86 1015.96 1016.29 1016.29 1016.57 1016.66 1017.04 1017.01 1017.31 1017.50 1017.61 1017.69 1017.72 1017.94 1017.92 1018.16 1018.29 1018.47 1018.52 1018.58 1018.63 1018.72 1018.80 1018.77 1018.87 1018.75 1018.77 1018.80
1007.02 1007.64 1007.45 1007.44 1007.76 1007.89 1008.03 1008.87 1008.86 1009.81 1010.71 1010.62 1010.97 1011.87 1012.90 1013.19 1013.52 1014.02 1014.83 1015.17 1015.78 1016.04 1016.15 1016.35 1016.62 1016.78 1017.07 1017.27 1017.32 1017.51 1017.68 1017.69 1017.78 1017.84 1018.00 1018.08 1018.30 1018.40 1018.51 1018.54 1018.61 1018.68 1018.77 1018.80 1018.91 1018.94 1018.76 1018.77 1018.78
1006.77 1007.14 1007.72 1007.84 1007.72 1007.93 1007.89 1008.19 1008.94 1009.65 1010.32 1010.94 1011.27 1012.54 1013.23 1013.74 1014.05 1014.47 1015.07 1015.55 1015.89 1016.20 1016.32 1016.65 1016.88 1017.09 1017.36 1017.39 1017.58 1017.67 1017.84 1017.79 1017.82 1017.95 1018.06 1018.24 1018.40 1018.45 1018.48 1018.55 1018.65 1018.81 1018.83 1018.78 1018.82 1018.85 1018.79 1018.64 1018.74
1006.45 1007.16 1008.42 1008.72 1007.93 1007.75 1007.76 1007.63 1008.32 1009.47 1010.44 1011.29 1012.03 1012.36 1013.89 1014.23 1014.44 1014.82 1015.27 1015.67 1015.84 1016.25 1016.54 1016.83 1017.10 1017.27 1017.42 1017.53 1017.74 1017.93 1017.98 1017.96 1018.00 1018.08 1018.26 1018.45 1018.58 1018.63 1018.63 1018.69 1018.75 1018.82 1018.84 1018.72 1018.77 1018.85 1018.81 1018.55 1018.65
1005.99 1007.44 1008.58 1008.64 1008.26 1008.15 1007.94 1007.55 1008.27 1009.44 1010.37 1011.04 1011.43 1012.37 1014.06 1014.35 1014.49 1014.80 1015.32 1015.74 1015.91 1016.31 1016.65 1016.92 1017.16 1017.32 1017.42 1017.61 1017.81 1017.96 1018.03 1018.05 1018.11 1018.26 1018.42 1018.54 1018.64 1018.64 1018.68 1018.71 1018.74 1018.76 1018.68 1018.61 1018.69 1018.69 1018.72 1018.51 1018.56
1005.73 1007.77 1008.78 1008.69 1008.34 1008.09 1007.97 1007.87 1008.04 1008.49 1009.95 1010.79 1010.98 1012.53 1013.49 1013.79 1014.29 1014.89 1015.44 1015.92 1016.32 1016.66 1016.85 1017.10 1017.28 1017.40 1017.54 1017.63 1017.74 1017.90 1018.02 1018.02 1018.12 1018.28 1018.31 1018.47 1018.62 1018.60 1018.60 1018.73 1018.63 1018.54 1018.54 1018.44 1018.51 1018.54 1018.51 1018.34 1018.21
1006.58 1008.09 1008.53 1008.22 1007.82 1007.75 1007.57 1007.58 1008.81 1008.83 1009.37 1010.27 1010.59 1011.41 1012.62 1013.50 1014.15 1014.96 1015.71 1016.32 1016.66 1016.92 1017.10 1017.13 1017.30 1017.50 1017.57 1017.64 1017.67 1017.76 1017.83 1017.80 1017.91 1018.08 1018.12 1018.31 1018.53 1018.63 1018.60 1018.61 1018.57 1018.50 1018.39 1018.09 1018.31 1018.31 1018.27 1018.16 1018.15
1006.69 1007.75 1007.53 1007.25 1006.99 1007.47 1007.81 1007.61 1008.26 1009.12 1010.00 1010.49 1011.07 1012.03 1012.74 1013.44 1014.14 1014.85 1015.57 1016.20 1016.53 1016.73 1016.89 1016.96 1017.05 1017.29 1017.49 1017.42 1017.54 1017.72 1017.78 1017.76 1017.83 1017.96 1018.13 1018.36 1018.47 1018.54 1018.56 1018.51 1018.49 1018.32 1018.23 1018.22 1018.10 1018.03 1018.14 1018.16 1018.08
1005.99 1006.40 1005.88 1006.53 1006.83 1007.15 1007.59 1008.14 1008.39 1008.91 1009.82 1009.63 1010.65 1011.86 1012.66 1013.41 1014.18 1014.64 1015.24 1015.41 1015.62 1016.02 1016.45 1016.68 1016.83 1017.20 1017.38 1017.42 1017.63 1017.85 1017.88 1017.85 1017.80 1017.88 1017.99 1018.18 1018.23 1018.37 1018.41 1018.44 1018.48 1018.37 1018.23 1018.13 1017.98 1018.12 1018.26 1018.34 1018.10
1004.89 1005.40 1005.92 1005.92 1006.66 1007.02 1007.33 1008.28 1008.53 1008.76 1009.23 1009.87 1010.57 1011.58 1012.37 1013.22 1013.87 1014.28 1014.78 1015.20 1015.60 1015.83 1016.03 1016.45 1016.60 1016.92 1017.08 1017.25 1017.49 1017.70 1017.89 1017.89 1017.84 1017.76 1017.87 1018.06 1018.17 1018.31 1018.29 1018.33 1018.17 1018.23 1018.16 1018.11 1018.20 1018.17 1018.20 1018.15 1018.16
1004.21 1004.83 1005.86 1005.82 1006.25 1006.84 1007.39 1008.25 1008.44 1009.00 1009.49 1010.23 1010.84 1011.92 1012.55 1013.00 1013.49 1014.05 1014.05 1014.72 1015.20 1015.46 1015.67 1016.22 1016.35 1016.60 1016.82 1017.03 1017.36 1017.51 1017.65 1017.74 1017.66 1017.66 1017.65 1017.73 1017.69 1017.75 1017.96 1018.03 1017.94 1018.00 1018.14 1018.16 1018.17 1018.15 1018.19 1018.18 1018.08
1003.65 1004.16 1005.18 1005.49 1006.35 1006.80 1007.14 1008.29 1008.33 1009.63 1009.85 1010.32 1010.83 1011.74 1012.30 1012.61 1013.12 1013.73 1014.17 1014.45 1014.89 1015.00 1015.20 1015.73 1016.02 1016.22 1016.53 1016.89 1017.13 1017.21 1017.22 1017.22 1017.32 1017.30 1017.31 1017.33 1017.36 1017.44 1017.61 1017.72 1017.71 1017.81 1017.86 1017.94 1018.00 1018.02 1018.14 1018.05 1017.98
1003.40 1004.71 1005.71 1006.29 1006.56 1007.21 1007.15 1008.87 1008.99 1009.31 1009.85 1010.46 1010.95 1011.33 1011.74 1012.28 1012.67 1013.13 1013.48 1013.97 1014.24 1014.64 1014.82 1015.46 1015.85 1015.98 1016.46 1016.62 1016.62 1016.86 1016.97 1016.97 1016.93 1016.92 1016.87 1016.87 1017.03 1017.18 1017.37 1017.65 1017.74 1017.72 1017.72 1017.70 1017.74 1017.77 1017.89 1018.02 1017.91
1003.93 1004.39 1006.22 1006.87 1006.55 1007.07 1006.76 1009.16 1009.36 1009.54 1009.90 1010.61 1010.96 1011.27 1011.68 1011.99 1012.35 1012.70 1013.09 1013.34 1013.69 1014.22 1014.73 1015.13 1015.60 1015.95 1016.24 1016.46 1016.32 1016.35 1016.46 1016.56 1016.70 1016.71 1016.74 1016.85 1016.89 1016.85 1017.18 1017.75 1017.69 1017.64 1017.80 1017.71 1017.95 1018.02 1018.10 1018.18 1018.18
1004.14 1004.70 1005.39 1006.59 1005.97 1006.10 1007.00 1009.18 1009.19 1009.21 1009.53 1010.13 1010.57 1010.87 1011.13 1011.62 1011.97 1012.33 1012.65 1012.91 1013.24 1013.81 1014.38 1014.90 1015.24 1015.58 1015.86 1015.96 1016.08 1016.20 1016.30 1016.47 1016.41 1016.46 1016.68 1016.66 1016.42 1016.68 1017.13 1017.41 1017.50 1017.52 1017.83 1017.93 1018.07 1018.16 1018.23 1018.16 1018.04
1004.14 1004.67 1004.86 1004.89 1005.53 1005.96 1006.99 1007.94 1008.37 1008.83 1009.25 1009.33 1009.81 1010.44 1010.86 1011.25 1011.44 1011.72 1012.20 1012.67 1012.96 1013.49 1014.08 1014.49 1014.91 1015.32 1015.75 1015.95 1016.06 1016.12 1016.33 1016.27 1016.28 1016.30 1016.32 1016.32 1016.50 1016.76 1016.95 1017.22 1017.36 1017.44 1017.66 1017.83 1017.92 1018.08 1018.00 1018.07 1018.11
1003.79 1003.71 1004.13 1004.15 1004.76 1005.73 1006.32 1007.45 1007.89 1008.22 1008.71 1008.95 1009.20 1009.66 1010.30 1010.74 1011.00 1011.37 1011.69 1012.27 1012.90 1013.20 1013.87 1014.16 1014.79 1015.20 1015.58 1016.01 1016.31 1016.47 1016.59 1016.44 1016.28 1016.01 1016.21 1016.38 1016.43 1016.57 1016.85 1017.15 1017.18 1017.30 1017.69 1017.92 1017.96 1017.89 1017.99 1018.09 1018.13
1003.46 1003.95 1003.52 1003.77 1004.06 1004.91 1006.57 1007.37 1007.40 1007.56 1007.59 1008.02 1008.43 1009.00 1009.62 1010.39 1010.98 1011.47 1011.83 1012.16 1012.72 1013.13 1013.43 1014.03 1014.43 1014.81 1015.10 1015.45 1015.81 1016.06 1016.16 1016.14 1016.04 1015.92 1016.00 1016.08 1016.12 1016.33 1016.58 1016.93 1017.39 1017.51 1017.73 1017.93 1018.00 1018.03 1018.22 1018.30 1018.17
1002.61 1002.89 1002.91 1003.11 1004.13 1005.32 1006.65 1008.05 1007.74 1007.33 1007.54 1007.85 1008.03 1007.85 1008.49 1009.44 1010.40 1011.16 1011.68 1012.08 1012.45 1012.92 1013.33 1013.88 1014.17 1014.49 1014.80 1015.11 1015.60 1015.93 1016.04 1016.16 1016.25 1016.16 1016.12 1015.98 1016.03 1016.26 1016.57 1016.91 1017.20 1017.46 1017.59 1017.79 1017.86 1017.91 1017.98 1018.17 1018.21
1002.32 1002.19 1001.74 1002.89 1004.07 1005.43 1006.07 1007.58 1007.75 1007.15 1007.33 1007.35 1007.42 1007.63 1008.17 1008.58 1009.24 1010.24 1011.07 1011.72 1012.11 1012.44 1012.84 1013.45 1014.02 1014.35 1014.67 1015.04 1015.41 1015.69 1015.93 1016.38 1016.45 1016.36 1016.37 1016.21 1016.11 1016.30 1016.45 1016.67 1016.93 1017.20 1017.41 1017.65 1017.73 1017.74 1017.79 1017.90 1018.11
1001.30 1001.27 1001.79 1002.53 1003.97 1005.20 1006.45 1007.24 1006.53 1007.27 1007.24 1006.71 1006.56 1006.58 1007.07 1007.55 1008.12 1009.14 1009.91 1010.57 1011.22 1011.90 1012.39 1012.81 1013.51 1014.01 1014.32 1014.73 1015.05 1015.66 1016.17 1016.24 1016.24 1016.40 1016.48 1016.43 1016.33 1016.19 1016.36 1016.64 1016.97 1017.15 1017.34 1017.48 1017.54 1017.56 1017.65 1017.72 1017.90
1000.22 1001.12 1001.66 1003.60 1005.04 1006.19 1005.73 1006.34 1006.63 1006.25 1005.12 1005.26 1005.71 1005.88 1006.29 1006.97 1007.48 1008.04 1008.74 1009.66 1010.33 1011.13 1011.99 1012.50 1013.06 1013.53 1013.97 1014.43 1014.92 1015.39 1016.06 1016.41 1016.52 1016.66 1016.82 1016.68 1016.45 1016.36 1016.47 1016.64 1016.90 1016.86 1017.02 1017.25 1017.38 1017.44 1017.53 1017.61 1017.67
1000.48 1001.73 1003.04 1004.51 1005.71 1005.91 1005.11 1005.90 1004.34 1003.77 1003.54 1003.60 1003.83 1004.41 1005.12 1005.89 1006.70 1007.51 1008.43 1009.16 1009.85 1010.47 1011.19 1011.72 1012.27 1013.02 1013.65 1014.19 1014.59 1015.07 1015.61 1016.00 1016.28 1016.50 1016.76 1016.83 1016.76 1016.80 1016.73 1016.82 1016.94 1016.88 1016.82 1016.91 1017.07 1017.28 1017.41 1017.43 1017.49
1000.37 1001.45 1003.24 1004.32 1005.27 1005.01 1004.58 1003.85 1001.82 1001.25 1000.99 1001.96 1002.48 1003.09 1004.17 1005.07 1005.68 1006.38 1007.19 1007.90 1008.42 1009.12 1010.02 1010.97 1011.43 1012.06 1012.89 1013.60 1014.02 1014.48 1014.96 1015.56 1015.84 1016.06 1016.40 1016.65 1016.83 1016.79 1016.74 1016.77 1016.66 1016.54 1016.65 1016.80 1016.82 1017.02 1017.13 1017.21 1017.30
999.83 1000.91 1001.66 1003.44 1004.98 1005.16 1004.09 1002.75 1001.00 1000.05 1000.75 1001.47 1002.02 1002.95 1003.57 1004.23 1005.02 1005.87 1006.29 1006.82 1007.89 1008.62 1009.11 1009.75 1010.60 1011.25 1011.90 1012.97 1013.81 1014.17 1014.58 1015.18 1015.60 1015.87 1016.17 1016.39 1016.54 1016.62 1016.60 1016.44 1016.54 1016.43 1016.45 1016.52 1016.76 1016.86 1016.92 1016.97 1017.06
998.47 999.62 1001.85 1003.47 1004.75 1005.33 1004.53 1003.46 1001.99 1001.10 1000.88 1001.17 1001.76 1002.25 1002.98 1003.59 1004.42 1005.16 1005.73 1006.53 1007.04 1007.53 1008.17 1009.04 1010.00 1010.67 1011.58 1012.51 1013.65 1014.05 1014.38 1014.71 1015.10 1015.48 1015.82 1016.03 1016.30 1016.40 1016.45 1016.59 1016.60 1016.53 1016.49 1016.49 1016.57 1016.66 1016.65 1016.75 1016.72
998.59 999.51 1001.09 1002.56 1003.98 1004.70 1004.60 1003.64 1000.85 1000.48 1000.15 1000.78 1001.16 1001.46 1002.54 1003.29 1003.66 1004.25 1005.14 1005.59 1005.99 1006.81 1007.68 1008.43 1009.74 1010.60 1011.24 1011.79 1013.01 1013.20 1013.98 1014.42 1014.74 1015.20 1015.46 1015.64 1015.94 1016.23 1016.27 1016.29 1016.32 1016.34 1016.28 1016.24 1016.32 1016.24 1016.19 1016.30 1016.36
997.12 998.51 1000.12 1002.19 1003.81 1004.02 1003.65 1002.32 1000.05 999.41 999.28 999.98 1001.04 1001.35 1001.85 1002.71 1003.09 1003.65 1004.19 1004.90 1005.66 1006.33 1007.22 1008.08 1009.15 1010.24 1010.52 1011.04 1012.59 1012.70 1013.52 1014.07 1014.40 1014.78 1014.95 1015.23 1015.56 1015.83 1015.85 1016.01 1016.03 1016.06 1016.00 1015.91 1015.98 1016.10 1016.08 1016.08 1016.08
Wind_Speed
8 8 3 3 3 4 5 6 3 8 2 5 6 7 12 9 4 8 5 12 12 10 10 14 16 19 18 18 17 17 17 16 16 16 16 16 14 14 13 12 12 11 10 10 9 10 9 8 6
4 4 2 1 4 4 4 12 10 10 7 8 9 11 12 8 10 13 8 13 14 11 9 11 16 18 19 18 17 16 16 16 15 15 14 15 14 14 13 12 11 10 9 8 7 8 6 5 5
6 7 1 3 2 11 10 13 13 15 13 10 8 12 7 9 15 11 13 16 13 10 9 12 16 16 18 17 17 16 15 16 15 15 14 15 14 14 12 11 10 10 9 6 6 6 5 3 4
6 2 3 2 5 15 19 17 19 16 13 7 11 11 6 8 9 11 18 15 13 12 11 14 16 17 17 16 16 16 15 14 13 14 13 14 13 13 12 11 10 9 7 6 4 4 3 2 3
2 2 4 3 5 18 19 23 20 19 11 15 11 11 6 12 17 19 17 14 13 10 10 11 15 16 17 17 16 15 14 14 12 12 13 12 12 11 10 9 8 7 6 5 4 2 1 0 1
5 3 6 5 6 13 17 20 20 18 19 18 16 13 5 15 16 16 14 13 12 12 10 11 15 16 16 17 16 14 14 13 12 11 11 10 9 8 7 6 6 5 5 3 2 1 1 3 3
8 5 3 3 14 16 18 20 18 20 15 9 12 11 9 13 14 16 14 13 12 11 8 8 9 13 17 15 15 14 13 12 11 10 10 9 8 6 4 4 4 5 4 3 4 4 3 6 7
6 5 1 1 4 9 15 6 18 22 11 17 16 8 12 11 15 15 13 12 12 9 8 7 5 6 6 10 15 15 13 12 10 10 9 8 7 6 4 2 5 7 6 6 6 6 6 8 7
4 6 5 4 2 1 9 23 12 11 21 10 6 12 18 19 17 15 13 9 9 9 9 8 7 6 6 6 10 14 15 12 11 10 10 7 3 4 5 6 8 9 8 6 8 7 7 8 6
4 5 9 3 4 4 11 21 16 13 17 15 16 17 20 21 17 18 15 12 10 11 10 9 9 9 8 8 6 6 6 4 5 5 5 4 5 5 5 8 9 10 12 9 8 7 7 7 3
7 3 9 4 6 7 9 11 5 20 14 24 24 27 23 21 18 18 16 17 15 14 10 10 9 7 7 5 4 2 2 3 3 6 5 4 3 3 3 2 3 3 7 3 4 4 3 4 3
6 1 9 9 8 6 9 6 5 10 14 19 24 24 21 21 18 16 15 13 12 12 12 10 8 9 8 5 5 4 3 3 3 5 6 4 3 3 3 3 4 2 2 2 1 0 2 2 3
8 13 15 15 10 8 8 6 8 12 18 18 24 21 22 18 16 15 17 14 13 11 9 11 11 11 7 6 4 5 6 5 6 5 5 4 5 4 4 4 3 2 0 1 0 0 1 3 4
15 19 20 16 9 6 14 6 9 14 19 17 16 17 16 17 15 9 13 12 13 12 12 12 14 9 8 6 6 5 4 7 5 6 7 7 5 4 3 3 3 1 1 1 1 1 2 3 3
24 17 14 12 13 10 17 9 12 16 19 18 13 9 8 13 14 13 14 13 14 12 13 12 9 8 9 8 7 5 4 3 4 5 6 7 5 6 5 4 2 2 2 3 2 3 2 3 3
10 15 9 7 18 10 11 6 9 18 19 15 15 14 11 8 14 14 14 11 12 12 12 11 10 11 7 7 5 3 3 3 3 3 4 5 6 6 4 3 3 2 3 1 2 2 3 3 2
6 10 16 8 6 11 7 9 14 16 18 17 17 16 15 12 11 13 14 12 12 14 12 12 8 9 8 6 5 4 4 2 3 1 3 4 5 5 5 3 3 1 2 1 1 1 2 3 4
5 9 17 15 12 3 11 9 20 17 16 18 17 15 13 13 16 13 14 13 10 9 14 11 7 7 7 4 3 2 2 3 3 3 2 3 3 4 3 2 2 0 1 2 1 2 1 3 2
4 11 13 13 11 10 18 13 20 19 17 18 16 15 14 15 15 13 15 13 11 9 9 9 9 8 6 3 2 1 3 2 3 3 3 4 3 5 5 3 3 2 2 2 3 2 2 2 2
4 8 13 3 12 8 13 17 20 20 22 19 18 17 17 12 11 10 11 12 11 9 9 8 8 8 7 4 3 3 3 3 3 2 2 5 4 4 3 3 2 3 2 3 2 3 1 1 2
5 10 13 9 7 8 12 1 6 13 16 10 18 21 19 19 18 14 12 11 9 8 8 8 8 10 7 6 3 1 1 1 2 1 2 4 5 6 6 5 4 4 3 3 2 2 3 1 1
8 11 18 9 15 8 9 8 7 14 15 9 13 18 18 20 21 17 15 13 12 12 9 9 8 8 7 8 5 5 4 3 2 3 2 3 5 5 4 5 6 5 3 3 1 1 2 2 1
13 9 11 12 16 8 4 5 18 7 14 15 12 20 19 22 23 22 20 18 16 13 12 11 10 9 8 7 6 5 3 2 2 2 4 2 1 2 4 6 5 5 3 2 2 1 1 1 2
14 4 7 6 6 2 12 12 5 11 26 17 12 19 19 21 23 24 21 19 18 16 14 13 12 9 7 8 8 9 8 6 4 3 3 2 1 3 5 6 4 4 3 2 1 1 0 1 1
5 7 2 3 1 8 9 10 15 21 24 23 23 24 21 23 22 21 21 18 18 20 18 16 16 10 9 9 9 8 8 8 7 5 3 3 3 2 4 4 4 2 2 2 2 2 1 1 2
8 11 9 7 4 7 8 7 12 19 26 25 20 26 22 24 23 24 24 21 21 22 20 18 17 16 14 11 10 8 8 5 4 4 3 3 3 3 4 4 4 4 3 3 2 2 2 2 3
9 5 10 8 1 4 4 9 9 5 17 19 17 21 22 24 22 23 23 20 19 20 22 21 19 17 16 11 7 7 8 7 6 5 5 4 3 3 6 6 5 4 3 3 2 2 3 3 3
14 8 4 4 7 4 5 5 7 5 13 14 15 18 17 22 21 21 21 19 19 21 20 19 18 17 13 10 7 7 8 7 7 6 7 6 4 4 5 5 5 4 4 4 3 3 4 5 4
2 3 4 7 6 8 3 8 8 10 16 18 16 17 14 19 22 21 18 20 21 19 19 18 16 15 14 13 11 10 7 7 7 6 6 6 5 5 5 5 5 5 5 5 4 5 6 6 5
10 11 8 8 6 2 6 9 4 11 16 17 12 12 9 15 15 19 20 20 19 19 17 18 16 15 15 14 12 10 8 8 7 7 7 7 7 5 6 6 6 6 6 6 5 6 5 5 6
Wind_Direction
172 166 188 151 85 67 117 140 73 141 221 297 89 80 82 35 86 122 139 135 129 125 126 125 126 124 121 116 120 118 112 111 111 109 108 110 111 109 108 108 111 110 111 104 104 101 95 90 78
163 171 241 216 71 89 82 115 142 164 169 112 107 96 54 71 70 114 118 139 130 130 128 128 130 129 129 127 126 124 118 116 116 118 120 120 119 117 120 120 117 112 106 106 105 101 99 99 91
188 204 185 92 139 108 117 152 145 130 143 155 115 89 77 110 115 147 134 135 131 130 127 138 129 134 134 134 127 126 124 123 125 124 130 123 124 124 127 127 121 116 109 104 102 101 103 92 85
177 84 320 112 142 123 128 134 131 135 165 129 102 78 73 110 120 130 141 133 130 136 133 134 136 137 139 139 131 132 131 128 129 131 130 127 130 137 136 129 121 115 116 119 124 122 120 130 109
168 73 52 92 84 119 125 140 149 134 104 106 102 96 80 91 114 123 129 134 134 134 133 133 139 145 145 143 142 137 140 138 137 137 137 135 141 140 133 124 123 130 141 149 156 143 137 132 107
65 95 59 356 78 114 122 126 113 103 105 101 107 105 92 126 127 132 133 135 136 136 140 144 145 144 139 138 140 146 145 146 148 148 143 145 141 129 124 135 148 161 170 177 198 240 264 280 276
99 50 41 346 109 116 127 128 122 128 133 121 137 109 136 144 143 137 136 136 135 138 138 144 152 153 148 144 146 149 153 157 158 152 151 152 142 143 160 184 201 208 209 242 271 270 265 271 276
84 91 254 287 86 118 148 125 131 144 118 135 137 143 159 162 151 137 135 133 134 131 133 139 147 133 140 151 152 157 161 165 164 161 168 160 162 181 190 265 258 250 240 262 273 278 264 266 274
90 49 300 169 168 169 144 123 139 121 135 153 168 136 155 156 152 135 133 130 133 146 153 157 150 149 155 162 170 168 169 177 179 181 188 183 176 199 227 249 253 265 272 271 265 262 268 280 278
118 138 230 178 130 122 130 128 138 142 151 116 122 129 145 149 147 147 151 154 160 162 171 168 163 166 167 170 173 174 187 191 195 197 207 182 193 212 227 240 250 262 263 266 264 266 266 272 290
155 208 175 181 141 162 127 136 172 147 151 149 143 148 154 152 156 156 161 168 171 173 170 172 167 162 169 176 168 165 198 205 216 217 206 205 220 222 233 240 262 277 282 279 293 300 277 277 275
134 122 193 154 163 136 155 94 63 147 155 145 141 148 151 161 168 164 167 164 164 171 177 166 165 173 184 167 178 185 192 210 222 230 215 206 212 217 243 223 244 254 292 360 290 208 231 293 315
172 186 156 156 148 124 111 92 110 125 140 145 140 147 161 167 171 170 171 171 174 175 168 163 169 180 181 161 178 187 201 210 220 227 229 208 220 208 185 202 205 175 262 301 80 283 359 329 320
179 155 143 140 134 130 116 132 99 129 141 147 152 151 164 171 176 149 177 167 171 178 179 164 170 181 168 165 190 199 207 215 215 213 218 217 208 214 194 211 218 189 170 275 271 328 316 298 312
151 130 133 149 157 121 109 95 125 143 147 152 156 160 157 165 162 156 170 165 164 174 167 165 167 166 174 180 180 176 182 169 194 214 221 216 207 199 189 204 218 250 260 283 315 324 328 324 330
161 120 138 204 145 170 97 148 138 147 150 160 165 174 179 182 164 165 172 170 152 164 167 164 173 184 175 176 182 185 206 188 202 217 218 208 232 203 186 179 219 268 297 265 324 335 319 316 296
308 149 140 149 252 145 105 150 167 161 159 169 180 185 184 184 180 171 173 172 165 168 172 180 181 172 170 176 171 191 222 248 254 204 183 203 219 162 165 169 237 202 261 277 262 280 200 289 312
211 113 154 166 177 148 139 177 169 172 175 180 183 190 191 184 187 173 174 174 174 161 173 176 167 160 169 163 168 215 241 264 246 220 210 176 124 141 140 186 224 227 36 336 319 260 255 213 271
214 141 170 191 171 132 158 163 176 182 189 192 190 184 186 182 186 175 174 173 176 174 174 159 159 179 157 156 163 199 220 233 261 268 215 210 184 159 162 162 139 90 68 25 6 326 355 342 355
209 188 187 201 165 113 164 170 185 186 197 195 187 179 183 174 167 174 168 168 176 174 172 164 175 169 174 168 166 168 177 219 220 236 200 188 171 163 151 132 134 129 115 69 51 63 16 337 13
266 187 202 170 151 53 139 195 199 207 201 198 198 185 179 170 172 179 175 178 173 173 174 168 172 171 172 172 152 167 52 43 45 15 111 151 128 125 130 143 135 118 105 84 98 115 91 358 306
268 216 212 145 150 166 176 202 242 199 188 199 187 182 185 176 174 176 183 185 182 188 173 168 171 170 180 177 174 166 180 178 205 161 173 112 138 167 148 134 138 125 115 109 114 105 131 130 322
238 201 203 167 175 103 187 93 214 138 212 219 210 195 184 178 174 181 185 183 183 178 179 179 176 177 182 174 176 163 155 157 152 136 145 171 224 227 151 130 134 131 121 137 125 48 68 171 162
245 218 51 73 98 154 202 185 239 186 211 213 223 201 184 181 183 184 184 180 184 178 182 179 177 183 173 158 159 155 162 172 148 165 166 203 85 68 128 135 152 136 139 148 189 213 233 226 197
165 66 314 336 29 203 180 192 231 209 215 207 204 195 188 184 182 182 180 179 179 181 186 183 178 179 169 167 164 168 174 173 174 183 172 141 103 138 175 149 171 162 191 240 225 220 267 206 160
183 154 156 192 212 254 125 223 252 199 203 200 203 192 185 186 185 182 183 182 181 183 182 184 182 173 173 175 175 172 165 176 178 169 164 164 173 185 179 183 192 192 219 267 255 231 247 229 193
237 141 191 132 140 67 274 301 325 222 195 184 178 187 188 188 187 186 189 185 184 185 187 186 182 178 173 168 160 167 166 165 164 162 162 171 173 178 174 187 190 202 211 227 213 218 232 180 183
183 177 80 5 177 230 279 267 241 177 174 186 181 187 184 186 185 189 190 184 194 193 189 186 184 179 164 150 168 175 178 167 167 166 178 174 196 195 185 198 210 212 221 236 216 229 233 203 222
63 141 69 120 138 165 233 262 219 208 178 187 193 199 170 170 187 190 186 192 196 191 188 186 181 174 164 161 185 176 180 183 170 178 185 190 194 213 211 214 219 231 237 249 252 248 234 221 232
175 178 148 145 238 197 155 261 304 193 180 172 199 199 176 168 178 188 191 189 191 191 186 187 176 178 176 173 185 174 178 183 178 188 191 192 204 209 208 217 220 233 239 240 241 256 253 232 232